Location: Unspecified
(48.5910°N, 12.0210°E)
Time: 02:07:43
(UTC+00:00)

Daily predictions for brighter satellites

Satellite Brightness Start Highest point End
(mag) Time Altitude Azimuth Time Altitude Azimuth Time Altitude Azimuth
Cosmos 2344 4.5 02:29:37 44° ENE 02:29:37 44° ENE 02:35:20 10° NE
CENTAUR R/B 3.9 02:34:23 46° E 02:34:23 46° E 02:40:24 10° ESE
SL-16 R/B 4.3 02:46:10 23° ENE 02:46:10 23° ENE 02:49:06 10° ESE
Cosmos 2297 Rocket 3.9 03:00:36 29° E 03:00:36 29° E 03:04:57 10° NE
ATLAS 2AS CENTAUR R/B 3.3 03:17:33 58° NNE 03:17:33 58° NNE 03:24:03 10° NE
Okean O Rocket 4.2 03:20:00 10° NE 03:21:08 16° NE 03:21:08 16° NE
SJ 16-02 3.9 03:34:09 15° NE 03:34:55 16° NE 03:37:38 10° E
Cosmos 2227 Rocket 2.6 03:42:13 61° ESE 03:42:13 61° ESE 03:47:39 10° NNE
MOS 1-B 4.5 03:37:59 10° NNE 03:43:42 72° E 03:43:42 72° E
IDEFIX/ARIANE 42P 4.1 03:39:58 10° NNE 03:42:16 27° NNE 03:42:16 27° NNE
Cosmos 1898 Rocket 4.0 03:49:36 58° ENE 03:49:41 58° ENE 03:54:56 10° SE
ATLAS 5 CENTAUR R/B 4.1 03:50:50 18° N 03:50:59 18° N 03:54:53 10° NE
Cosmos 2237 Rocket 3.8 04:04:06 22° S 04:04:06 22° S 04:06:09 10° S
PAYLOAD A 4.2 03:55:32 10° NNE 04:00:57 75° ESE 04:06:10 10° S
Cosmos 2219 4.1 04:03:25 36° N 04:03:25 36° N 04:06:59 10° NNE
Meteor 1-11 Rocket 4.0 03:55:54 10° S 04:01:51 72° E 04:07:47 10° NNE
RESURS DK-1 4.1 04:04:16 27° NE 04:04:16 27° NE 04:06:16 10° NNE
NOSS 3-4 (A) 3.3 04:06:35 69° NW 04:06:37 69° NW 04:13:10 10° NE
NOSS 3-4 (C) 3.3 04:06:41 70° NW 04:06:45 70° NW 04:13:19 10° NE
Meteor 1-23 Rocket 4.4 04:05:51 28° N 04:08:56 68° ENE 04:14:29 10° SSE
Lacrosse 4 Rocket 2.1 04:16:20 46° NE 04:16:20 46° NE 04:19:18 10° NE
Cosmos 1937 Rocket 3.6 04:19:32 46° N 04:21:04 75° ENE 04:26:18 10° SSE
CENTAUR R/B 3.3 04:21:37 44° W 04:22:44 46° WSW 04:30:46 10° S
CZ-4B R/B 3.3 04:18:34 10° NNE 04:24:17 82° ESE 04:29:54 10° SSW
Okean 2 Rocket 3.5 04:21:08 10° S 04:25:30 61° E 04:29:53 10° NNE
USA 234 3.8 04:20:39 10° ENE 04:26:46 43° N 04:28:29 36° NW
SL-16 R/B 2.1 04:28:06 58° WNW 04:28:58 67° WSW 04:34:34 10° SSE
COSMOS 2441 4.2 04:25:46 10° N 04:30:34 75° WNW 04:35:20 10° SSW
Cosmos 2150 Rocket 4.5 04:30:42 23° N 04:33:50 57° ENE 04:38:54 10° SE
Cosmos 990 Rocket 3.9 04:33:06 48° NW 04:34:36 79° WSW 04:39:51 10° SSE
COSMO-SKYMED 1 2.6 04:31:19 10° S 04:35:14 62° SW 04:35:14 62° SW
Cosmos 1821 Rocket 4.0 04:33:20 30° NNW 04:36:16 56° W 04:42:17 10° SSW
Cosmos 2298 Rocket 4.3 04:34:10 25° NNW 04:37:17 68° ENE 04:42:33 10° SSE
Cosmos 1461 2.8 04:37:03 71° NNW 04:37:28 83° NE 04:41:33 10° SE
Cosmos 468 Rocket 3.9 04:32:48 10° SSW 04:37:57 83° ESE 04:43:07 10° NNE
SL-24 R/B - RUBIN 2 3.7 04:37:00 55° NW 04:38:05 87° SW 04:43:19 10° SE
CZ-2C R/B 4.1 04:34:21 10° SSE 04:38:56 64° ENE 04:42:49 15° N
Cosmos 1943 4.4 04:35:49 15° NNW 04:40:07 40° NE 04:45:27 10° ESE
Cosmos 2344 4.2 04:39:39 34° WNW 04:42:07 42° NNW 04:50:52 10° NE
Cosmos 1400 Rocket 2.7 04:42:40 64° NW 04:43:12 79° W 04:47:16 10° S
CZ-2C R/B 2.1 04:38:50 10° N 04:43:24 60° WNW 04:47:54 10° SSW
Cosmos 2297 Rocket 2.3 04:42:29 42° W 04:43:55 53° NW 04:49:28 10° NNE
Cosmos 1535 Rocket 4.5 04:40:25 10° NNW 04:46:43 63° W 04:53:00 10° S
Meteor 1-5 Rocket 4.1 04:41:29 10° SSW 04:47:01 58° WNW 04:52:24 10° N
MSX 3.8 04:43:15 10° N 04:48:53 55° WNW 04:54:28 10° SW
Cosmos 1666 3.7 04:45:27 10° SSE 04:49:06 46° E 04:52:47 10° NNE
Cosmos 292 Rocket 3.7 04:48:34 34° SW 04:50:27 58° WNW 04:55:13 10° NNE
Cosmos 1315 Rocket 3.2 04:51:48 17° N 04:54:48 62° ENE 04:58:47 10° SSE
SJ-12 3.9 04:52:07 10° NNE 04:56:17 88° ESE 05:00:26 10° SSW
Cosmos 2082 3.8 04:53:47 18° SW 04:57:58 56° WNW 05:03:39 10° NNE
Okean O Rocket 2.6 04:56:04 10° N 04:58:35 28° NNW 04:58:35 28° NNW
Cosmos 1066 Rocket 4.0 04:55:53 10° NNW 05:01:16 81° W 05:06:37 10° S
Cosmos 1867 4.0 05:02:54 33° W 05:04:37 41° NW 05:09:50 10° NNE
Nadezhda 3 Rocket 4.4 04:59:24 10° SW 05:05:01 36° WNW 05:10:39 10° N
Cosmos 1975 3.7 05:01:26 10° S 05:05:24 52° E 05:09:24 10° NNE
ATLAS CENTAUR R/B 4.0 05:06:01 11° NNW 05:07:22 12° N 05:09:14 10° NNE
ATLAS 2AS CENTAUR R/B 3.9 05:05:01 25° WNW 05:08:22 33° NNW 05:15:27 10° NE
SL-8 R/B 4.0 05:06:51 32° W 05:08:51 55° SSW 05:13:34 10° SE
Cosmos 1300 Rocket 3.5 05:06:44 10° S 05:11:11 88° E 05:15:40 10° N
CZ-4 R/B 4.4 05:08:57 10° NE 05:11:39 17° E 05:14:19 10° SE
SJ 16-02 1.2 05:11:11 21° NNW 05:14:05 76° WSW 05:18:27 10° SSE
Cosmos 44 Rocket 4.4 05:14:29 26° WNW 05:15:38 29° NW 05:20:12 10° NNE
Cosmos 1743 3.0 05:12:34 10° S 05:16:26 69° E 05:20:19 10° NNE
Cosmos 1459 Rocket 4.4 05:12:44 10° N 05:18:48 61° ENE 05:24:47 10° SSE
Cosmos 2100 Rocket 4.4 05:15:38 10° N 05:22:02 70° ENE 05:28:22 10° SSE
SMAP 3.9 05:19:39 10° NNE 05:24:14 53° E 05:28:47 10° S
IDEFIX/ARIANE 42P 4.0 05:20:38 10° NNW 05:23:04 18° NW 05:23:04 18° NW
Cosmos 1934 Rocket 4.5 05:19:20 10° NNW 05:24:44 35° W 05:30:08 10° SSW
Cosmos 540 Rocket 3.9 05:20:42 10° S 05:25:49 67° ESE 05:30:57 10° NNE
Cosmos 2227 Rocket 3.0 05:24:07 21° W 05:26:32 29° NW 05:31:25 10° NNE
Radarsat Rocket 3.9 05:21:29 10° NNE 05:27:42 76° WNW 05:33:30 10° SSW
Cosmos 1603 3.7 05:25:22 14° NNW 05:30:10 68° WSW 05:35:44 10° SSE
Cosmos 841 Rocket 3.4 05:26:38 10° SSW 05:31:54 77° WNW 05:37:11 10° NNE
Okean-O 2.5 05:28:40 10° NNE 05:33:08 79° WNW 05:37:32 10° SSW
Cosmos 1763 Rocket 3.6 05:30:13 10° SW 05:35:13 49° WNW 05:40:12 10° NNE
TELKOM 3 3.5 05:35:43 20° SW 05:37:02 56° SSE 05:39:37 10° ENE
ATLAS 5 CENTAUR R/B 3.4 05:32:23 12° NNW 05:37:12 36° NE 05:42:59 10° E
Cosmos 2263 Rocket 3.2 05:32:09 10° S 05:37:37 51° ESE 05:43:07 10° NE
RESURS DK-1 3.9 05:40:13 18° NW 05:40:38 18° NW 05:43:32 10° N
Cosmos 372 Rocket 3.9 05:35:55 10° NNW 05:41:01 72° WSW 05:46:06 10° SSE
Cosmos 2016 Rocket 4.3 05:39:59 10° N 05:46:07 69° E 05:52:11 10° SSE
Cosmos 2061 Rocket 4.3 05:39:42 10° N 05:46:12 78° E 05:52:36 10° SSE
SJ-7 4.5 05:42:01 10° N 05:46:13 59° WNW 05:50:20 10° SSW
Cosmos 2151 Rocket 4.2 05:43:04 10° SW 05:47:14 36° WNW 05:51:27 10° N
Cosmos 1125 Rocket 3.5 05:43:07 10° NNW 05:48:21 82° WSW 05:53:33 10° SSE
Abrixas rocket 2.0 05:46:34 17° W 05:48:49 90° SSW 05:51:58 10° E
Okean 2 4.4 05:47:20 12° NW 05:50:31 26° W 05:54:01 10° SW
Lacrosse 4 Rocket 2.8 05:52:43 15° WNW 05:54:23 18° NW 05:57:17 10° N
Cosmos 1484 Rocket 3.8 05:51:37 10° NNW 05:54:47 24° WNW 05:57:57 10° WSW
USA 229 DEB 4.4 05:48:01 10° NW 05:55:01 54° NE 06:02:15 10° ESE
USA 229 4.4 05:48:07 10° NW 05:55:07 54° NE 06:02:21 10° ESE
FENGYUN 3A 3.6 05:51:37 10° NNE 05:57:00 83° WNW 06:02:21 10° SSW
ALOS 2.2 05:55:22 10° N 06:00:01 66° WNW 06:04:39 10° SSW
Meteor 1-12 Rocket 4.3 05:54:40 10° SSW 06:00:33 84° WNW 06:06:22 10° N
METEOR-M 4.2 05:55:32 10° N 06:00:49 61° WNW 06:06:05 10° SSW
CORIOLIS 4.2 05:55:53 10° NNE 06:01:17 86° ESE 06:06:38 10° SSW
CZ-4B R/B 4.4 06:00:10 10° N 06:04:10 20° NW 06:08:09 10° W
Cosmos 1455 Rocket 4.4 06:01:15 10° SSE 06:05:22 43° E 06:09:29 10° NNE
USA 234 3.7 06:02:50 10° E 06:09:06 51° NNE 06:15:24 10° WNW
Cosmos 192 4.4 06:06:21 10° SSW 06:11:17 90° ESE 06:16:17 10° NNE
SL-16 R/B 4.0 06:10:52 10° W 06:11:58 11° W 06:13:03 10° WSW
ATLAS 5 CENTAUR R/B 4.5 06:08:52 10° S 06:12:11 38° ESE 06:21:21 10° NE
Cosmos 1025 Rocket 4.1 06:10:23 10° NNW 06:14:03 26° W 06:17:43 10° SW
Cosmos 1727 Rocket 4.5 06:09:12 10° SW 06:15:06 39° WNW 06:21:01 10° N
H-2A R/B 3.0 06:13:58 10° NNE 06:17:51 75° ESE 06:21:39 10° S
Okean 1-7 Rocket 3.7 06:13:55 10° NNW 06:18:23 60° W 06:22:48 10° S
Cosmos 2173 Rocket 4.3 06:14:58 10° NNW 06:21:03 50° W 06:27:09 10° SSW
Landsat 4 4.4 06:18:52 10° SSE 06:22:33 57° ENE 06:26:15 10° N
Cosmos 1943 3.8 06:18:53 10° NW 06:24:12 41° WSW 06:29:30 10° S
Cosmos 1666 4.3 06:22:35 10° WSW 06:25:00 16° WNW 06:27:27 10° NNW
NOAA 12 4.3 06:20:52 10° NNE 06:26:09 79° ESE 06:31:23 10° S
